Погода в Бартошице

Польша     54°15′14″N   20°48′57″E
темп.,
°C
ветер,
м/с
пор.,
м/с
влажн.,
%
обл.,
%
осадки,
мм/ч
давл.,
гПа
погр.,
м
28 февраля, вс
вс2801:00+1з488633 0.0 1032252
04:00+1з5118394 0.0 1030295
07:00+1з4109565 0.0 1030330
10:00+4зсз7119092 0.0 1028636
13:00+4сз698596 0.0 1029543
16:00+4сз6108772 0.0 1029439
19:00+2сз5109346 0.0 1030236
22:00+2сз5119030 0.0 1031225
1 марта, пн
пн101:00+2сз379015 0.0 1032137
04:00+1зсз34910 0.0 103259
07:00+2зсз33900 0.0 103344
10:00+6з46760 0.0 1033282
13:00+9зюз47660 0.0 1032449
16:00+8зюз510700 0.0 1030531
19:00+5зюз512850 0.0 1030303
22:00+3з511861 0.0 1029346
2 марта, вт
вт201:00+2з411900 0.0 1030316
04:00+1з410941 0.0 1028286
07:00+1з499612 0.0 1029240
10:00+4з468859 0.0 1029345
13:00+7зсз477846 0.0 1029471
16:00+6зсз58810 0.0 1029483
19:00+2зсз37946 0.0 1030206
22:00+1зсз3494100 0.0 103091
3 марта, ср
ср301:00+1зсз2395100 0.0 103150
04:000зсз239890 0.0 103080
07:00+1зюз229695 0.0 1030164
10:00+1юз2293100 0.0 1030248
13:00+3ююз2383100 0.0 1028351
16:00+3юз358893 0.0 1026418
19:00+2ююз239287 0.0 102546
22:00+1юз47920 0.0 1023110
4 марта, чт
чт401:00+1юз47900 0.0 1020142
04:00+1юз49870 0.0 1018173
07:00+1юз599014 0.0 1015209
10:00+6зюз597852 0.0 1013423
13:00+7з577776 0.0 1011663
16:00+7зсз3782100 0.1 1009453
19:00+3зсз5996100 0.9 1008490
22:00+2ссз3695100 0.9 1008370